Temperature
24 23 23 23 25 25 28 32 32 32 31 31 31 31 30 28 27 24 24 24 23 22 22 22 21 21 20 20 20 19 19 19 19 19 19 19 18 18 18 18 18 18 18 18 18 18 18 18 18
24 23 24 26 25 27 30 32 32 32 31 31 31 30 29 28 27 26 25 24 22 22 22 22 21 21 20 20 20 19 19 19 19 19 19 18 18 18 18 18 18 18 18 18 18 18 18 18 18
24 24 26 28 27 29 31 32 32 32 31 31 31 30 28 27 27 26 25 23 22 21 21 22 21 21 20 20 20 19 19 19 19 19 18 18 18 18 18 18 18 18 18 18 18 18 18 18 18
23 26 27 28 29 32 33 33 33 32 32 31 30 29 28 27 26 25 24 23 22 21 21 21 21 21 20 20 20 19 19 19 19 19 18 18 18 18 18 18 18 18 18 18 18 18 18 18 18
25 27 27 28 30 33 34 33 33 32 31 31 30 28 26 25 25 25 24 23 22 20 21 21 21 20 20 20 20 19 19 19 19 19 18 18 18 18 18 18 18 18 18 18 18 18 18 18 18
28 29 28 29 30 33 34 33 33 32 31 31 30 29 26 25 25 24 24 23 22 20 20 21 21 20 20 20 19 19 19 19 19 18 18 18 18 18 18 18 18 18 18 18 18 18 18 18 18
28 29 29 30 31 33 34 33 33 32 32 31 30 29 26 25 24 24 24 23 22 20 20 21 20 20 20 19 19 19 19 19 19 19 18 18 18 18 18 18 18 18 18 18 18 18 18 18 18
29 30 29 31 32 33 34 33 33 32 31 30 30 29 26 25 24 24 23 23 22 20 20 20 20 20 20 19 19 19 19 19 19 19 19 19 19 18 18 18 18 18 18 18 18 18 18 18 18
29 30 29 31 32 33 34 33 33 32 30 29 28 27 26 24 24 23 23 23 22 20 20 19 19 19 19 19 19 19 19 19 19 19 19 19 18 18 18 18 18 18 18 18 18 18 18 18 18
31 30 31 33 34 34 34 33 33 32 30 28 27 26 25 24 24 23 23 22 22 21 20 20 19 19 18 18 19 19 19 19 19 18 19 18 18 18 18 18 18 18 18 18 18 18 18 18 18
32 32 33 34 34 34 34 33 33 32 30 28 27 26 25 24 24 23 23 22 22 21 20 20 19 19 19 19 19 18 18 19 18 18 18 18 18 18 18 18 18 18 18 18 18 18 18 18 18
32 33 33 33 33 33 33 33 33 32 30 29 28 26 24 24 23 23 23 22 22 21 21 20 20 19 19 19 19 19 18 19 18 18 18 18 18 18 18 18 18 18 18 18 18 18 18 18 18
33 33 33 33 33 33 33 32 31 31 30 29 28 26 25 24 23 23 23 22 22 21 20 20 19 19 19 19 19 19 19 19 19 19 18 18 18 18 18 18 18 18 18 18 18 18 18 18 18
33 33 33 33 33 33 33 31 30 28 29 29 28 26 25 24 23 23 22 22 21 20 20 20 19 19 19 19 19 19 19 19 19 19 18 18 18 18 18 18 18 18 18 18 18 18 18 18 18
33 33 33 33 33 34 33 31 29 29 29 29 28 26 25 24 23 22 22 21 21 20 20 19 19 19 19 19 19 19 19 19 19 19 18 18 18 18 18 18 18 18 18 18 18 18 18 18 18
32 32 31 32 33 34 33 30 30 29 29 29 28 26 25 23 23 22 21 21 21 20 19 19 18 19 19 19 19 19 19 19 19 18 18 18 18 18 18 18 18 18 18 18 18 18 18 18 18
31 31 31 32 33 34 33 31 30 30 30 29 27 26 25 23 22 22 21 20 20 19 19 19 18 18 19 19 19 19 19 19 19 18 18 18 18 18 18 18 18 18 18 18 18 18 18 18 18
30 31 31 31 33 34 33 32 32 31 30 29 27 26 24 23 22 21 21 20 19 19 19 18 18 18 18 18 19 19 19 19 18 18 18 18 18 18 18 18 18 18 18 18 18 18 18 18 18
32 32 32 32 34 33 32 32 32 31 30 29 27 26 24 23 22 21 20 19 19 18 18 18 18 18 18 18 18 18 18 18 18 18 18 18 18 18 18 17 18 18 18 18 18 17 17 18 18
32 31 32 32 33 33 32 32 32 30 29 29 27 26 24 23 22 21 20 19 19 18 18 18 18 18 18 18 19 18 18 18 18 18 18 17 17 17 18 17 17 18 17 17 17 17 17 18 18
31 31 31 32 32 33 32 30 30 29 29 28 28 26 25 24 22 21 20 19 19 18 18 18 18 18 18 18 18 18 18 18 18 18 17 17 17 17 17 17 17 17 17 17 17 17 17 17 18
31 32 32 32 31 31 31 29 28 28 28 27 28 27 25 24 22 21 20 19 19 18 18 18 18 18 18 18 18 18 18 18 18 18 17 17 17 17 17 17 17 17 17 17 17 17 17 17 18
31 33 32 32 31 30 30 29 28 28 27 28 28 27 26 24 23 21 20 19 19 18 18 18 18 17 17 17 18 18 18 18 18 17 17 17 17 17 17 17 17 17 17 17 17 17 17 17 17
32 32 31 31 30 28 28 28 28 29 29 29 29 27 26 24 23 21 20 20 19 18 18 18 17 17 17 17 17 17 17 18 17 17 17 17 17 17 17 16 17 17 17 16 16 16 17 17 17
32 30 29 28 28 27 26 26 28 31 31 31 29 27 26 24 23 21 20 19 19 18 18 18 17 17 17 17 17 17 17 17 18 17 17 17 17 17 17 17 17 16 16 16 16 16 16 17 17
31 30 28 27 27 26 25 25 27 31 31 30 29 27 26 24 23 22 21 20 19 18 18 18 17 17 17 17 17 17 17 17 17 17 17 17 17 17 17 17 17 16 16 16 16 16 16 16 16
30 31 31 30 29 27 26 27 29 30 30 30 29 27 26 25 23 22 21 20 19 18 18 18 17 17 17 17 17 17 17 17 17 17 17 17 17 17 17 17 17 16 16 16 16 16 16 16 16
32 31 31 29 27 27 28 28 27 27 27 28 28 27 26 25 24 22 21 20 19 18 18 17 17 17 17 17 17 17 17 17 17 17 17 17 17 17 17 17 16 16 16 16 16 16 16 16 16
31 31 30 30 29 28 27 27 28 26 25 26 28 27 26 25 24 23 21 20 19 19 18 17 17 17 17 17 17 17 17 17 17 17 17 17 17 17 17 16 16 16 16 16 16 16 16 16 16
31 31 30 28 28 29 28 28 29 27 27 27 28 28 26 25 24 23 22 21 20 19 18 18 17 17 17 17 17 17 17 17 17 17 17 17 17 17 17 16 16 16 16 16 16 16 16 16 16
Wind_Speed
12 14 12 7 4 6 6 7 10 11 10 10 8 7 10 12 8 7 9 18 25 23 21 21 20 19 18 17 17 17 16 16 15 14 13 12 11 11 11 11 11 11 11 11 11 11 11 11 11
12 15 11 5 5 5 3 7 10 11 9 6 6 7 10 12 11 11 13 21 25 23 21 20 21 19 19 18 17 17 16 15 14 13 13 12 11 11 11 11 11 11 11 11 11 11 11 11 11
13 17 8 6 8 6 4 9 8 8 7 5 4 7 8 8 8 10 16 22 23 21 21 22 21 20 19 18 17 17 16 15 14 13 13 12 11 11 12 11 11 11 11 11 11 11 11 11 10
9 8 4 7 10 5 6 7 6 4 4 5 4 5 9 8 6 12 18 21 23 22 22 22 21 21 19 18 17 16 16 15 14 13 12 12 12 12 12 11 11 11 11 11 11 11 10 10 9
11 6 7 9 11 5 6 6 4 4 4 5 5 6 9 7 9 14 16 20 22 21 21 22 21 21 19 18 17 16 16 15 14 13 12 12 12 12 11 11 11 11 11 11 10 10 10 9 8
8 8 9 9 8 4 5 4 3 3 3 2 3 5 7 9 10 13 15 18 20 20 21 21 21 20 19 18 17 16 16 15 14 13 12 12 12 11 11 11 10 10 10 10 9 9 8 8 6
11 10 12 13 7 3 4 4 4 3 3 3 3 5 8 9 12 14 15 16 18 20 20 18 19 18 18 18 17 16 15 14 13 12 12 12 12 11 10 10 10 10 9 9 8 8 7 6 5
12 10 13 12 6 3 5 4 3 3 3 5 5 3 8 11 13 14 14 16 17 18 19 17 18 17 17 16 16 16 15 14 13 12 12 12 11 11 11 11 10 9 8 8 7 7 6 5 5
13 10 11 11 6 5 6 5 4 2 3 4 5 5 9 15 16 15 14 15 15 16 16 16 16 15 16 16 16 15 15 14 13 12 12 11 11 11 11 11 11 9 8 7 6 6 5 5 5
10 10 12 10 8 8 8 7 7 3 3 2 3 8 14 15 17 17 16 16 17 16 15 13 15 14 14 14 15 13 13 13 12 12 12 11 9 10 11 13 11 10 9 8 7 7 6 6 6
12 14 13 11 9 9 10 9 7 4 1 2 6 11 14 15 15 16 16 16 18 17 15 14 14 11 11 9 11 9 9 11 11 11 11 9 7 8 11 10 10 10 10 8 8 8 7 6 4
13 15 14 12 11 11 11 10 9 5 3 3 7 13 14 16 15 14 15 15 16 15 15 14 13 9 7 9 8 7 6 7 7 10 9 6 3 2 5 5 8 9 8 7 7 5 4 3 5
14 14 15 14 12 11 9 7 9 8 4 3 5 10 14 15 14 13 12 11 13 13 12 13 12 9 7 7 6 7 5 6 8 10 7 5 3 2 3 2 3 4 7 7 4 3 2 2 3
14 15 15 14 14 12 7 4 3 5 3 2 5 8 9 12 13 12 11 11 12 11 10 11 11 10 8 6 4 4 5 5 8 8 8 6 4 3 2 2 1 1 3 4 2 3 3 2 2
15 16 17 14 15 11 5 3 2 6 3 1 4 7 8 9 10 11 10 10 11 12 11 12 10 9 8 7 6 5 5 6 5 7 9 6 5 6 2 3 2 1 4 4 2 3 2 3 4
19 18 16 12 13 9 7 3 5 3 2 3 4 6 8 8 8 8 9 9 9 10 11 12 12 11 9 7 5 4 4 5 5 7 9 7 7 6 2 2 2 2 3 3 3 2 3 2 3
18 16 14 11 11 9 7 5 4 6 3 4 5 6 8 9 8 8 9 10 10 11 10 10 10 12 10 8 6 4 3 4 5 6 7 7 7 7 3 2 3 2 2 2 2 2 1 1 2
15 13 11 10 7 8 9 7 3 6 3 4 6 7 9 9 9 10 10 10 10 11 11 10 10 11 10 8 5 4 4 4 4 5 6 7 5 5 2 3 3 2 1 2 3 3 1 0 1
18 17 14 11 9 9 10 10 5 4 4 6 7 7 9 9 10 11 11 11 11 11 12 12 11 10 9 7 7 6 6 5 5 5 8 6 5 5 1 2 3 1 2 3 3 2 2 2 1
18 16 16 13 11 11 12 11 5 4 2 3 7 9 10 10 10 11 11 12 12 12 12 11 12 12 11 8 6 5 6 5 5 5 5 6 6 6 5 2 3 2 3 2 2 2 1 3 3
17 15 16 15 15 14 14 11 3 3 4 5 7 9 10 11 12 12 12 12 12 12 13 12 12 12 11 10 6 6 5 4 5 6 5 4 6 5 3 4 1 2 2 4 2 1 2 2 1
16 16 17 17 16 13 12 9 3 4 6 7 8 10 10 10 11 11 11 11 11 11 12 11 12 11 11 10 9 9 8 6 7 6 5 5 4 5 5 4 2 1 1 4 3 3 1 1 2
17 16 16 16 15 15 13 10 4 5 6 8 10 11 10 11 11 10 10 9 10 10 11 11 11 11 11 10 10 9 8 6 6 7 7 6 4 4 5 5 4 2 0 3 3 3 1 1 2
16 16 16 15 13 15 12 12 7 6 5 8 11 11 10 10 10 10 9 8 8 10 10 11 12 11 10 10 10 9 8 7 8 9 8 6 5 4 5 6 4 3 2 3 2 1 1 1 3
14 12 11 13 10 9 8 7 6 3 5 7 11 12 11 10 10 10 9 9 9 10 11 12 12 11 11 10 9 8 8 7 8 8 8 6 6 5 6 6 4 3 3 3 2 2 1 2 1
14 15 13 13 11 6 4 7 6 2 7 9 11 12 12 11 11 10 9 9 9 9 10 11 12 11 11 10 9 7 8 6 6 6 6 5 4 6 7 6 5 3 4 4 3 2 4 2 1
17 16 16 16 16 13 7 8 7 5 6 8 11 13 11 11 12 11 10 10 10 10 10 10 11 11 11 11 9 7 7 5 6 7 5 5 4 7 8 7 6 5 4 2 3 2 2 3 3
17 15 10 11 12 13 9 5 2 2 2 3 8 11 11 12 12 12 11 11 11 10 10 11 10 11 11 11 10 10 8 6 5 6 4 3 4 5 8 7 6 5 4 4 3 3 2 2 3
13 15 13 11 10 11 11 4 2 3 5 8 10 12 13 13 13 13 12 12 12 12 11 11 10 11 11 11 9 9 9 8 6 5 4 3 4 6 6 6 5 5 4 4 4 4 3 4 3
12 13 13 11 11 11 11 5 3 5 6 4 5 12 14 13 13 14 13 13 12 12 12 11 11 11 11 10 10 9 9 8 7 7 6 5 4 4 5 4 4 3 3 3 3 4 3 2 2
Wind_Direction
243 246 241 253 253 251 280 50 58 60 59 52 46 44 58 60 70 105 145 134 124 127 131 132 130 129 130 131 131 130 129 127 124 122 118 115 112 109 105 101 99 97 94 92 90 89 90 92 94
265 263 250 248 267 282 2 57 62 57 60 59 63 56 65 65 75 111 131 127 127 130 136 135 133 132 132 132 132 131 130 127 125 124 121 118 114 112 108 105 102 99 97 94 92 91 92 95 98
267 268 271 248 251 281 33 55 60 65 71 57 61 74 72 75 83 117 129 133 131 133 134 134 137 135 134 133 132 131 130 129 127 126 123 120 115 110 107 104 102 99 96 94 92 91 93 96 101
265 260 268 277 289 318 33 51 50 48 72 72 48 81 81 66 84 121 135 138 131 133 133 138 139 138 137 136 135 135 134 133 131 128 125 122 117 111 108 104 102 100 96 94 93 92 95 98 104
252 258 249 275 291 329 40 40 33 45 35 60 64 85 95 90 100 124 143 138 135 137 134 140 140 140 140 139 139 139 138 137 133 131 130 125 119 115 111 108 105 103 100 99 97 96 97 101 109
262 257 266 285 291 352 43 54 34 45 51 46 101 118 103 113 121 140 148 140 137 134 135 139 142 142 142 143 143 142 141 139 136 135 133 128 124 121 116 113 111 108 106 105 104 103 104 106 116
265 279 285 284 283 6 27 28 25 5 35 32 43 98 116 128 136 149 147 139 137 136 137 143 145 145 145 146 146 145 143 142 140 139 136 133 132 130 126 123 120 116 113 112 111 109 110 116 128
263 286 300 299 312 17 34 8 21 5 35 41 17 53 131 140 147 148 149 143 135 137 141 149 149 149 151 151 151 148 146 146 147 147 147 146 145 145 143 140 132 129 127 125 123 123 127 135 151
262 272 285 300 329 353 1 342 334 39 51 39 18 47 134 145 148 152 154 145 139 141 144 151 149 153 156 156 154 153 153 155 156 158 163 166 170 163 164 147 145 146 146 146 148 152 159 165 182
248 262 282 308 334 333 332 328 311 313 77 104 111 119 138 153 156 161 162 157 151 151 152 149 150 160 163 158 153 161 164 164 177 170 175 192 188 168 151 149 157 161 165 168 178 186 196 203 191
253 269 287 305 319 318 313 309 303 310 338 132 161 162 157 158 162 169 169 165 160 158 152 152 152 165 162 147 158 166 168 167 187 173 180 189 175 157 145 160 164 177 181 189 183 202 214 200 171
254 277 291 295 304 303 301 312 317 346 39 135 161 165 165 167 172 174 169 169 162 158 153 153 149 160 156 150 158 161 166 170 173 162 185 171 165 152 140 156 172 184 184 181 185 214 199 154 162
258 266 275 283 289 289 298 325 337 352 18 95 127 151 167 171 170 172 167 161 158 154 154 150 147 148 140 139 159 165 162 170 157 158 177 161 166 141 131 133 154 194 167 167 181 190 143 147 198
284 289 289 289 286 280 286 320 23 300 300 79 124 143 161 167 168 168 160 160 155 149 148 140 143 143 139 144 163 157 167 162 152 155 154 175 151 120 128 134 109 171 133 125 160 152 158 190 197
284 282 279 283 275 269 296 321 176 226 224 97 122 137 141 152 164 168 162 157 150 146 141 136 147 147 148 162 181 174 172 157 141 139 151 166 135 126 136 142 177 164 133 139 169 154 179 195 184
279 271 270 271 266 268 277 307 137 228 232 129 133 144 144 142 160 160 157 150 143 142 147 152 163 156 159 173 197 178 165 142 137 144 146 147 130 142 167 170 151 143 160 165 170 189 194 192 158
267 269 271 258 248 271 292 310 162 205 192 143 146 150 149 147 162 160 159 154 153 152 155 162 158 158 167 177 188 170 134 129 136 141 139 143 148 154 184 123 114 191 198 179 177 131 94 152 170
273 284 284 278 263 286 301 304 231 175 157 146 150 158 155 164 171 165 162 160 161 161 163 169 163 163 168 175 173 154 143 147 139 124 125 142 153 156 163 142 138 230 169 113 81 96 99 322 214
275 287 290 284 290 297 300 300 278 159 159 151 154 158 158 165 162 158 165 169 173 171 168 171 171 172 171 176 170 165 164 162 147 136 135 149 151 140 168 121 139 238 94 101 120 116 172 224 209
276 282 286 290 297 298 299 298 305 124 163 170 162 163 163 164 162 162 168 174 181 176 172 171 169 172 179 180 170 167 159 164 145 123 136 152 149 157 175 125 165 135 107 106 103 106 339 230 173
272 273 277 285 291 290 290 294 283 167 172 187 168 160 168 169 168 168 175 179 179 178 176 176 172 174 178 172 164 158 150 152 138 135 151 154 154 155 109 127 119 128 168 142 174 155 211 308 190
267 267 273 280 285 288 296 293 214 192 189 196 177 165 169 164 163 170 177 180 180 177 174 170 171 175 175 175 172 167 169 171 158 152 147 152 164 159 144 137 115 96 69 129 194 168 227 273 291
269 275 278 283 286 286 286 283 245 194 205 191 174 166 166 161 163 167 175 176 173 175 173 169 170 175 177 177 174 179 171 166 155 143 144 159 169 170 152 142 138 143 131 115 79 87 14 330 311
261 269 273 274 275 274 283 280 259 207 174 169 160 154 157 156 155 154 161 163 169 172 172 170 170 173 174 177 177 184 172 169 153 150 154 170 164 176 161 149 151 172 170 122 119 105 205 345 351
244 252 263 259 255 271 317 289 272 174 143 137 143 146 153 155 153 153 162 164 169 171 171 167 165 166 171 173 177 180 170 167 159 160 163 177 169 170 161 155 162 181 148 149 155 160 271 199 269
249 242 251 268 275 282 281 254 260 207 117 121 133 140 150 157 155 157 159 157 164 169 166 160 160 165 169 167 169 169 168 175 169 173 167 184 175 156 149 151 168 181 177 184 163 201 202 198 221
249 250 253 262 272 275 251 239 222 175 129 130 135 143 155 155 152 153 155 154 158 165 163 161 161 164 166 167 164 164 173 183 169 171 182 180 166 150 156 163 170 180 190 185 154 236 217 155 209
238 252 263 263 272 281 276 274 331 35 22 142 152 156 153 152 153 152 156 155 154 156 156 160 164 163 163 164 169 171 175 179 172 178 187 179 156 136 153 166 173 179 179 182 199 223 201 200 230
227 238 253 272 276 279 286 287 133 151 223 219 187 159 153 161 158 153 155 154 154 156 159 163 164 165 167 168 171 166 170 173 174 175 175 182 159 154 159 169 176 181 186 184 197 241 201 209 234
241 241 240 252 267 280 287 291 179 176 207 234 184 151 152 159 156 153 153 154 157 159 160 162 164 168 169 168 167 165 165 170 173 178 179 180 164 160 165 168 170 182 183 175 190 234 229 206 220
Height
1493 1492 1492 1495 1493 1491 1481 1464 1460 1463 1466 1468 1469 1470 1473 1478 1485 1497 1496 1496 1497 1499 1503 1507 1510 1514 1516 1519 1522 1524 1526 1528 1530 1532 1533 1535 1536 1538 1539 1540 1542 1543 1543 1544 1545 1546 1546 1547 1548
1492 1493 1496 1493 1493 1491 1477 1462 1463 1465 1467 1469 1471 1473 1476 1481 1485 1490 1494 1497 1497 1499 1504 1507 1511 1514 1517 1520 1523 1525 1527 1529 1531 1533 1535 1537 1538 1540 1541 1542 1543 1544 1545 1546 1546 1547 1548 1548 1549
1493 1493 1494 1487 1488 1482 1472 1461 1462 1464 1467 1470 1471 1474 1478 1484 1487 1491 1494 1496 1498 1500 1504 1508 1511 1515 1518 1521 1523 1526 1528 1531 1533 1535 1536 1538 1540 1541 1542 1544 1545 1546 1546 1547 1548 1548 1549 1550 1551
1495 1494 1491 1486 1481 1464 1459 1459 1461 1464 1467 1470 1472 1476 1481 1486 1488 1491 1494 1497 1498 1501 1505 1508 1512 1515 1518 1521 1524 1527 1529 1532 1534 1536 1538 1539 1541 1542 1544 1545 1546 1547 1548 1549 1549 1550 1551 1552 1553
1496 1492 1489 1488 1476 1460 1456 1460 1462 1465 1468 1470 1473 1478 1484 1487 1489 1491 1494 1497 1499 1502 1505 1509 1513 1516 1519 1522 1525 1528 1530 1533 1535 1537 1539 1541 1542 1544 1545 1546 1547 1548 1549 1550 1551 1552 1553 1554 1555
1493 1486 1490 1488 1475 1459 1457 1460 1463 1465 1469 1471 1473 1477 1485 1488 1490 1492 1494 1498 1501 1503 1505 1510 1514 1517 1520 1523 1526 1529 1531 1534 1536 1538 1540 1542 1543 1545 1546 1547 1549 1550 1551 1552 1553 1553 1554 1556 1557
1492 1485 1485 1480 1470 1462 1459 1460 1462 1465 1468 1471 1473 1477 1484 1487 1490 1493 1495 1499 1501 1503 1505 1509 1513 1518 1521 1524 1527 1529 1532 1535 1537 1539 1541 1543 1544 1546 1547 1549 1550 1551 1552 1553 1554 1555 1556 1557 1558
1489 1484 1483 1474 1467 1463 1459 1461 1463 1465 1468 1472 1475 1478 1483 1487 1490 1493 1496 1499 1501 1503 1505 1509 1513 1517 1521 1525 1528 1530 1533 1535 1538 1540 1542 1544 1545 1547 1548 1549 1551 1552 1553 1554 1555 1556 1558 1559 1560
1487 1486 1485 1473 1465 1461 1459 1461 1463 1465 1468 1472 1478 1479 1482 1485 1489 1493 1496 1499 1502 1503 1506 1510 1515 1518 1522 1525 1528 1531 1533 1536 1538 1541 1543 1544 1546 1548 1549 1550 1552 1553 1554 1555 1556 1557 1559 1560 1561
1482 1483 1477 1464 1460 1459 1459 1461 1462 1464 1467 1473 1477 1480 1482 1484 1487 1491 1494 1496 1500 1503 1507 1511 1515 1519 1523 1526 1528 1531 1534 1536 1539 1541 1543 1545 1547 1549 1550 1551 1552 1553 1554 1556 1557 1558 1559 1561 1562
1476 1474 1467 1462 1460 1460 1459 1459 1459 1461 1466 1470 1474 1478 1480 1483 1485 1488 1492 1495 1498 1503 1507 1512 1515 1520 1523 1526 1528 1531 1534 1536 1539 1542 1544 1546 1548 1550 1551 1552 1552 1554 1555 1556 1557 1559 1560 1561 1562
1472 1468 1465 1462 1460 1460 1459 1459 1459 1460 1465 1468 1470 1474 1477 1480 1483 1486 1489 1493 1496 1501 1505 1510 1514 1519 1522 1525 1528 1531 1535 1537 1539 1542 1544 1547 1549 1550 1551 1552 1553 1554 1555 1556 1558 1559 1560 1561 1562
1467 1465 1463 1461 1459 1458 1458 1459 1463 1464 1466 1468 1470 1473 1476 1479 1482 1485 1488 1492 1496 1500 1503 1507 1511 1516 1520 1524 1528 1532 1535 1537 1540 1542 1544 1546 1548 1550 1551 1552 1553 1554 1555 1556 1557 1559 1560 1561 1562
1466 1463 1461 1459 1458 1456 1456 1457 1463 1466 1468 1468 1470 1473 1475 1478 1481 1485 1487 1490 1493 1497 1501 1506 1509 1514 1520 1523 1528 1531 1534 1537 1539 1541 1543 1545 1547 1549 1550 1551 1553 1554 1555 1556 1557 1558 1560 1561 1562
1466 1464 1461 1458 1456 1452 1454 1459 1462 1465 1466 1467 1469 1472 1475 1479 1481 1484 1486 1489 1492 1496 1499 1504 1509 1514 1519 1523 1527 1531 1534 1537 1539 1540 1542 1545 1546 1547 1549 1551 1552 1553 1554 1555 1556 1558 1559 1560 1562
1465 1465 1467 1460 1453 1449 1454 1465 1461 1463 1464 1465 1468 1472 1476 1479 1482 1484 1487 1489 1493 1496 1499 1502 1508 1513 1518 1522 1526 1530 1534 1536 1538 1539 1541 1543 1545 1546 1548 1550 1552 1553 1554 1555 1556 1557 1558 1560 1561
1466 1468 1467 1459 1450 1446 1449 1457 1456 1458 1460 1463 1467 1471 1475 1479 1482 1484 1486 1489 1492 1495 1498 1503 1508 1511 1515 1520 1525 1529 1532 1534 1537 1539 1540 1542 1544 1546 1548 1550 1550 1552 1554 1555 1556 1556 1558 1559 1560
1470 1466 1464 1460 1448 1446 1448 1450 1450 1453 1457 1461 1465 1470 1474 1478 1481 1483 1486 1488 1491 1494 1497 1502 1506 1510 1514 1519 1523 1527 1530 1533 1536 1538 1539 1541 1543 1545 1547 1549 1550 1552 1553 1554 1555 1555 1557 1558 1559
1458 1458 1459 1453 1444 1446 1448 1448 1447 1450 1455 1459 1464 1469 1473 1477 1480 1482 1485 1487 1489 1492 1495 1499 1503 1508 1512 1516 1520 1524 1528 1532 1535 1536 1538 1541 1543 1544 1546 1548 1549 1551 1552 1553 1554 1555 1556 1558 1559
1456 1460 1458 1450 1443 1445 1448 1448 1445 1449 1456 1459 1462 1467 1471 1475 1479 1481 1484 1486 1488 1491 1494 1497 1500 1505 1509 1514 1519 1523 1527 1531 1533 1535 1537 1540 1542 1544 1546 1547 1548 1550 1551 1552 1553 1554 1556 1558 1559
1458 1459 1457 1455 1448 1444 1447 1453 1451 1450 1454 1458 1461 1465 1468 1472 1476 1479 1482 1484 1486 1489 1491 1494 1498 1503 1508 1512 1517 1521 1525 1529 1531 1534 1536 1539 1541 1543 1545 1546 1548 1549 1550 1551 1553 1554 1555 1557 1559
1460 1451 1450 1451 1455 1456 1453 1468 1457 1452 1454 1457 1459 1462 1466 1470 1474 1477 1480 1482 1485 1487 1490 1493 1496 1501 1505 1510 1514 1518 1522 1526 1529 1532 1534 1537 1539 1542 1543 1545 1546 1548 1550 1551 1552 1553 1555 1556 1558
1452 1446 1447 1449 1453 1458 1456 1466 1460 1450 1454 1452 1454 1458 1462 1467 1471 1475 1478 1481 1483 1486 1488 1491 1495 1499 1504 1508 1512 1517 1521 1525 1528 1531 1533 1536 1538 1540 1542 1544 1545 1547 1549 1550 1551 1552 1554 1556 1557
1446 1448 1449 1450 1456 1473 1465 1469 1463 1447 1445 1444 1448 1454 1460 1464 1469 1473 1477 1479 1482 1484 1486 1489 1493 1497 1502 1506 1510 1515 1519 1523 1526 1529 1531 1534 1536 1539 1541 1543 1544 1546 1548 1549 1550 1551 1553 1554 1555
1445 1459 1472 1474 1476 1478 1468 1471 1459 1436 1434 1438 1444 1451 1457 1463 1467 1471 1475 1478 1480 1482 1485 1487 1491 1495 1500 1504 1508 1513 1516 1520 1524 1527 1530 1533 1536 1538 1540 1542 1543 1545 1547 1548 1549 1550 1552 1553 1554
1445 1452 1473 1483 1481 1480 1474 1476 1454 1435 1434 1438 1443 1449 1455 1461 1465 1470 1473 1476 1478 1481 1484 1486 1490 1494 1498 1502 1506 1511 1515 1519 1523 1526 1529 1532 1535 1537 1539 1541 1542 1544 1546 1548 1548 1550 1551 1552 1553
1447 1447 1443 1456 1461 1471 1468 1457 1442 1435 1437 1439 1444 1449 1454 1459 1464 1468 1472 1475 1478 1480 1483 1486 1489 1493 1497 1500 1505 1509 1513 1517 1521 1525 1528 1531 1534 1536 1538 1539 1541 1543 1545 1547 1548 1549 1550 1551 1552
1436 1439 1445 1454 1470 1475 1463 1457 1456 1447 1445 1443 1445 1448 1452 1457 1462 1467 1471 1474 1477 1480 1483 1486 1489 1492 1495 1499 1503 1507 1511 1515 1520 1523 1527 1530 1533 1535 1536 1539 1541 1542 1544 1545 1547 1548 1549 1550 1551
1437 1441 1444 1446 1449 1465 1470 1462 1442 1445 1447 1446 1444 1446 1450 1455 1460 1465 1469 1473 1477 1480 1483 1485 1488 1491 1495 1499 1503 1507 1510 1514 1518 1522 1525 1528 1531 1533 1535 1537 1539 1541 1542 1544 1545 1547 1548 1548 1549
1429 1435 1440 1456 1457 1452 1458 1459 1436 1438 1441 1442 1441 1444 1449 1453 1458 1462 1468 1472 1476 1479 1482 1484 1487 1490 1494 1498 1502 1505 1509 1513 1517 1521 1524 1527 1530 1532 1534 1536 1538 1539 1541 1542 1544 1545 1546 1546 1547